THOR ABLESTAR DEB, 3592

Orbit data source: Space-Track

THOR ABLESTAR DEB, 3592 is space debris in LEO originally from a launch on Thu, 24 Jun 1965 UTC launched from the Air Force Western Test Range (AFWTR). Debris objects in space refer to the collection of defunct objects orbiting the Earth. Examples of debris include non-operational satellites, rocket bodies, and fragments generated from explosions, collisions, or faulty payload assembly.

Loading next visibility...
Identifier
3592, 1965-048F
Orbit
LEO
Last TLE update
1 day ago
Origin
Manufacturer
Unknown
Mission
Spacecraft
Bus & Motor
Unknown
Mass
Unknown
Launch date (UTC)
1965-06-24 (60 years ago)
Launch vehicle
Unknown
Launch site
Air Force Western Test Range (AFWTR)
Object type
Payload
Rocket body
Debris
Shape & HBR
Unknown
Radar Cross Section
Small (<0.1 m²)

Expand to show TLE details & history

TLE from 1 day ago
0 THOR ABLESTAR DEB
1 03592U 65048F   25181.54930100  .00000203  00000-0  24714-3 0  9997
2 03592  89.8854 292.1595 0058690 279.5170  95.9362 13.62498175972081
Epoch: 2025-06-30T13:10Z
TLE epoch observation values (Epoch: 2025-06-30T13:10:59.606Z)
Latitude
16.10136°
Longitude
175.58654°
Altitude
1,033.69 km
Speed
7.334 km/s
True Right ascension
19h 28m 46s
True Declination
16° 00' 48"
Sunlit
Object was in full shadow at epoch
Visualization orbit readout
Latitude
79.47833°
Longitude
-5.07432°
Altitude
1,083.368 km
Speed
7.296 km/s
Apparent Right ascension
16h 46m 27s
Apparent Declination
40° 41' 39"
Sunlit
Object is in daylight
Visualization observer readout
Local Sidereal Time
05:27:41
Azimuth
7.893° NNE
Elevation
-8.845°
Doppler factor
1
Orbital elements
Apogee altitude
1,067.1 km
Perigee altitude
980.217 km
Semi-major axis
7,401.795 km
Eccentricity
0.00587
Inclination
89.8854°
RAAN
292.1595°
Arg. of periapsis
279.517°
True anomaly
Unknown
Mean anomaly
95.9362°
Eccentric anomaly
Unknown
Mean motion
3.4083 °/min
Orbital period
105.62 mins
BSTAR
0.00024714
Loading maneuver chart data...
Loading SW <> Apogee altitude chart data...

THOR ABLESTAR DEB Visibility forecast

Observer location: undefined°, undefined°

Span
Click to sort rows by Start time (UTC) header in descending order
Start Az.
Max El. time (UTC)
Max El. Az.
Max El.
End time (UTC)
End Az.
4 mins2025-07-01 17:57:02.407Z55.656° ENE2025-07-01 17:59:02.407Z74.192° E12.208°2025-07-01 18:01:02.407Z92.859° ESE
12 mins2025-07-01 19:40:02.407Z3.226° NNE2025-07-01 19:45:02.407Z19.827° NNE44.359°2025-07-01 19:52:02.407Z182.287° SSW
5 mins2025-07-01 21:28:02.407Z310.38° NW2025-07-01 21:30:02.407Z290.828° WNW14.11°2025-07-01 21:33:02.407Z262.418° W
11 mins2025-07-02 07:31:02.407Z167.711° S2025-07-02 07:36:02.407Z91.304° ESE44.058°2025-07-02 07:42:02.407Z1.938° NNE
6 mins2025-07-02 09:20:02.407Z259.481° W2025-07-02 09:22:02.407Z280.122° WNW15.831°2025-07-02 09:26:02.407Z318.892° NNW
|